This is the latest recevied weather packets stored in our database for station/object EW7404. If no packets are shown the sender has not sent any weather packets the latest 10 day(s).
| Time | Temp. | Humidity | Pressure | Rain* | Wind** | Luminosity | Snow |
|---|---|---|---|---|---|---|---|
| 1777384515 | 4.44° C | 64% | 952 hPa | 0 mm | - | - | - |
| 1777383915 | 3.89° C | 64% | 952.6 hPa | 0 mm | - | - | - |
| 1777377315 | 3.89° C | 59% | 952.2 hPa | 0.25 mm | - | - | - |
| 1777374915 | 4.44° C | 57% | 952.5 hPa | 0.25 mm | - | - | - |
| 1777372535 | 3.89° C | 59% | 952.5 hPa | 5.33 mm | - | - | - |
| 1777370156 | 3.33° C | 63% | 952.6 hPa | 0 mm | - | - | - |
| 1777368915 | 3.33° C | 66% | 952.6 hPa | 0 mm | - | - | - |
| 1777357515 | 1.67° C | 69% | 951.7 hPa | 0 mm | - | - | - |
| 1777356936 | 1.67° C | 70% | 951.6 hPa | 0 mm | - | - | - |
| 1777353915 | 1.11° C | 69% | 951.4 hPa | 5.33 mm | - | - | - |
| 1777352715 | 1.11° C | 68% | 951.4 hPa | 5.33 mm | - | - | - |
| 1777347915 | 1.11° C | 71% | 951.1 hPa | 0 mm | - | - | - |
| 1777335315 | 1.11° C | 34% | 951.7 hPa | 0 mm | - | - | - |
| 1777332316 | 1.67° C | 31% | 951.9 hPa | 0 mm | - | - | - |
| 1777329916 | 1.11° C | 45% | 951.9 hPa | 0 mm | - | - | - |
| 1777326916 | 1.11° C | 50% | 951.9 hPa | 0 mm | - | - | - |
| 1777323915 | 1.67° C | 59% | 952.4 hPa | 0 mm | - | - | - |
| 1777317315 | 1.67° C | 66% | 952.6 hPa | 0 mm | - | - | - |
| 1777313115 | 2.22° C | 62% | 952.2 hPa | 0 mm | - | - | - |
| 1777310716 | 2.78° C | 68% | 952.1 hPa | 0 mm | - | - | - |
| 1777309516 | 2.78° C | 64% | 952.1 hPa | 0 mm | - | - | - |
| 1777308916 | 2.78° C | 64% | 952 hPa | 0 mm | - | - | - |
| 1777307715 | 3.33° C | 65% | 952.2 hPa | 0 mm | - | - | - |
| 1777304135 | 3.89° C | 62% | 952.4 hPa | 0 mm | - | - | - |
| 1777301716 | 3.33° C | 64% | 952.7 hPa | 0 mm | - | - | - |
* Rain latest hour (hover to see other rain measurements)
** Current wind speed in m/s (hover to see current wind gust speed)